Regional Weather Roundup
Issued by NWS

Home | Current Version | Previous Version | Text Only | Print | Product List | Glossary On
Versions: 1 2 3 4 5 6 7 8 9 10 11 12 13 14 15 16 17 18 19 20 21 22 23 24 25 26 27 28 29 30 31 32 33 34 35 36 37 38 39 40 41 42 43 44 45 46 47 48 49 50
000
ASUS43 KLSX 251757
RWRMO

WEATHER SUMMARY FOR MISSOURI
NATIONAL WEATHER SERVICE SPRINGFIELD MO
1200 PM CST SAT FEB 25 2017

NOTE: "FAIR" INDICATES FEW OR NO CLOUDS BELOW 12,000 FEET WITH NO
       SIGNIFICANT WEATHER AND/OR OBSTRUCTIONS TO VISIBILITY.
       CURRENT SKY AND/OR WEATHER CONDITIONS ARE NOT AVAILABLE FOR
       CHILLICOTHE AND FARMINGTON.

MOZ001>031-035>038-043-044-053-054-251900-
...NORTHERN AND WESTERN MISSOURI...

CITY           SKY/WX    TMP DP  RH WIND       PRES   REMARKS
KANSAS CTY INT PTSUNNY   35  13  40 VRB6      30.16F
6HR MIN TEMP:  19; 6HR MAX TEMP:  35;

LEE`S SUMMIT   SUNNY     34  12  40 CALM      30.17S
6HR MIN TEMP:  21; 6HR MAX TEMP:  36;

ST JOSEPH      MOSUNNY   29  18  63 W6        30.18S WCI  23
6HR MIN TEMP:  16; 6HR MAX TEMP:  30;

CHILLICOTHE      N/A     34  13  41 NW12G17   30.15F WCI  25
6HR MIN TEMP:  20; 6HR MAX TEMP:  34;


$$
MOZ066>068-077>081-088>096-101>105-251900-
...SOUTHWEST MISSOURI...

CITY           SKY/WX    TMP DP  RH WIND       PRES   REMARKS
SPRINGFIELD    SUNNY     38  16  40 NW13G18   30.16R WCI  30
6HR MIN TEMP:  21; 6HR MAX TEMP:  38;

JOPLIN         SUNNY     37  19  48 NW8       30.22S
6HR MIN TEMP:  21; 6HR MAX TEMP:  37;

BRANSON        SUNNY     37  16  41 NW9       30.17R

$$
MOZ032>034-039>042-045>050-055>058-069>072-251900-
...CENTRAL MISSOURI...

CITY           SKY/WX    TMP DP  RH WIND       PRES   REMARKS
COLUMBIA       NOT AVBL
JEFFERSON CITY SUNNY     33  13  43 W16G24    30.16R WCI  23
6HR MIN TEMP:  25; 6HR MAX TEMP:  33;

ROLLA          FLURRIES  34  12  40 NW16G28   30.10R WCI  24
6HR MIN TEMP:  23; 6HR MAX TEMP:  34; 6HR PCP: TRACE;

SEDALIA        SUNNY     37  11  34 NW13G21   30.17R WCI  29
6HR MIN TEMP:  23; 6HR MAX TEMP:  37;

WARRENSBURG    SUNNY     36  10  35 NW7       30.17F WCI  30

$$
MOZ051-052-059>065-251900-
...EAST CENTRAL MISSOURI...

CITY           SKY/WX    TMP DP  RH WIND       PRES   REMARKS
ST LOUIS INTL  MOSUNNY   38  15  39 W18G28    30.08R WCI  28
6HR MIN TEMP:  28; 6HR MAX TEMP:  38; 6HR PCP: TRACE;


$$
MOZ072>076-082>087-097>100-106>115-251900-
...SOUTH CENTRAL AND SOUTHEAST MISSOURI...

CITY           SKY/WX    TMP DP  RH WIND       PRES   REMARKS
CAPE GIRARDEAU SUNNY     39  15  37 NW12G20   30.10R
6HR MIN TEMP:  29; 6HR MAX TEMP:  40;

POPLAR BLUFF   SUNNY     40  16  37 VRB7G18   30.12S
6HR MIN TEMP:  30; 6HR MAX TEMP:  40;

WEST PLAINS    SUNNY     40  16  37 NW15G22   30.12R
6HR MIN TEMP:  25; 6HR MAX TEMP:  40;


$$



USA.gov is the U.S. government's official web portal to all federal, state and local government web resources and services.